THORAD DELTA 1 DEB, 8173

Orbit data source: Space-Track

THORAD DELTA 1 DEB, 8173 is space debris in SSO originally from a launch on Fri, 15 Nov 1974 UTC launched from the Air Force Western Test Range (AFWTR). Debris objects in space refer to the collection of defunct objects orbiting the Earth. Examples of debris include non-operational satellites, rocket bodies, and fragments generated from explosions, collisions, or faulty payload assembly.

Loading next visibility...
Identifier
8173, 1974-089AP
Orbit
SSO
Country
Flag of USUS
Related business
Manufacturer
Unknown
Mission
Spacecraft
Bus & Motor
Unknown
Mass
Unknown
Launch date (UTC)
1974-11-15 (51 years ago)
Launch vehicle
Unknown
Launch site
Air Force Western Test Range (AFWTR)
Object type
Payload
Rocket body
Debris
Shape & HBR
Unknown shape, 0.1 m
Radar Cross Section
Small (<0.1 m²)

Expand to show TLE details & history
Last TLE update: 1 day ago

TLE from 1 day ago
0 THORAD DELTA 1 DEB
1 08173U 74089AP  25287.39952943  .00000053  00000-0  62500-3 0  9999
2 08173 101.9702 263.3616 0107645 235.2674 281.7464 12.51841548324235
Epoch: 2025-10-14T09:35Z
TLE epoch observation values (Epoch: 2025-10-14T09:35:19.342Z)
Latitude
23.66128°
Longitude
-78.35357°
Altitude
1,443.057 km
Speed
7.15 km/s
True Right ascension
05h 54m 39s
True Declination
23° 32' 46"
Sunlit
Object was in daylight at epoch
Visualization orbit readout
Latitude
Unknown
Longitude
Unknown
Altitude
Unknown
Speed
Unknown
Apparent Right ascension
Unknown
Apparent Declination
Unknown
Sunlit
N/A
Visualization observer readout
Local Sidereal Time
14:55:37
Azimuth
Unknown
Elevation
Unknown
Doppler factor
Unknown
Orbital elements
Apogee altitude
1,538.672 km
Perigee altitude
1,370.046 km
Semi-major axis
7,832.496 km
Eccentricity
0.01076
Inclination
101.9702°
RAAN
263.3616°
Arg. of periapsis
235.2674°
True anomaly
280.53548°
Mean anomaly
281.7464°
Eccentric anomaly
281.14126°
Mean motion
3.13107 °/min
Orbital period
114.98 mins
BSTAR
0.000625
Loading maneuver chart data...
Computing Atmospheric mass density...

Documentation

Showing up to 5 results
|